Meteo orario Alhimovo

Oggi, 21 Ottobre, Mercoledi

Tempo Temperatura Precipitazioni Vento Pressione Umidità
00:00 -2°C° 0 mm 3 m/s 743 mm Hg 92%
01:00 -2°C° 0 mm 3 m/s 743 mm Hg 92%
02:00 -2°C° 0 mm 2 m/s 743 mm Hg 91%
03:00 -2°C° 0 mm 2 m/s 743 mm Hg 90%
04:00 -2°C° 0 mm 2 m/s 743 mm Hg 88%
05:00 -2°C° 0 mm 2 m/s 743 mm Hg 87%
06:00 -1°C° 0 mm 3 m/s 743 mm Hg 86%
07:00 0°C° 0 mm 3 m/s 743 mm Hg 85%
08:00 0°C° 0 mm 3 m/s 743 mm Hg 84%
09:00 +1°C° 0.1 mm 3 m/s 743 mm Hg 88%
10:00 0°C° 0.1 mm 4 m/s 742 mm Hg 91%
11:00 0°C° 0.1 mm 4 m/s 742 mm Hg 95%
12:00 0°C° 0.2 mm 4 m/s 742 mm Hg 95%
13:00 +1°C° 0.2 mm 3 m/s 741 mm Hg 96%
14:00 +1°C° 0.2 mm 3 m/s 741 mm Hg 96%
15:00 +2°C° 0.3 mm 3 m/s 740 mm Hg 96%
16:00 +2°C° 0.3 mm 3 m/s 740 mm Hg 97%
17:00 +2°C° 0.3 mm 3 m/s 740 mm Hg 97%
18:00 +2°C° 0 mm 3 m/s 740 mm Hg 97%
19:00 +3°C° 0 mm 2 m/s 740 mm Hg 97%
20:00 +3°C° 0 mm 2 m/s 740 mm Hg 97%
21:00 +3°C° 0 mm 2 m/s 739 mm Hg 98%
22:00 +3°C° 0 mm 2 m/s 739 mm Hg 98%
23:00 +3°C° 0 mm 2 m/s 739 mm Hg 98%

Domani, 22 Ottobre, Giovedi

Tempo Temperatura Precipitazioni Vento Pressione Umidità
00:00 +4°C° 0 mm 2 m/s 739 mm Hg 98%
01:00 +4°C° 0 mm 2 m/s 739 mm Hg 98%
02:00 +4°C° 0 mm 2 m/s 740 mm Hg 98%
03:00 +4°C° 0 mm 2 m/s 739 mm Hg 98%
04:00 +4°C° 0 mm 2 m/s 739 mm Hg 98%
05:00 +4°C° 0 mm 2 m/s 739 mm Hg 98%
06:00 +4°C° 0 mm 2 m/s 739 mm Hg 97%
07:00 +3°C° 0 mm 3 m/s 739 mm Hg 96%
08:00 +4°C° 0 mm 3 m/s 738 mm Hg 95%
09:00 +4°C° 0.1 mm 3 m/s 738 mm Hg 93%
10:00 +5°C° 0.1 mm 4 m/s 738 mm Hg 91%
11:00 +5°C° 0.1 mm 4 m/s 737 mm Hg 90%
12:00 +5°C° 0.7 mm 5 m/s 736 mm Hg 91%
13:00 +5°C° 0.7 mm 5 m/s 736 mm Hg 92%
14:00 +5°C° 0.7 mm 5 m/s 735 mm Hg 94%
15:00 +5°C° 0.5 mm 5 m/s 735 mm Hg 94%
16:00 +6°C° 0.5 mm 5 m/s 734 mm Hg 94%
17:00 +6°C° 0.5 mm 4 m/s 733 mm Hg 94%
18:00 +6°C° 0.3 mm 4 m/s 733 mm Hg 93%
19:00 +7°C° 0.3 mm 4 m/s 733 mm Hg 93%
20:00 +8°C° 0.3 mm 5 m/s 733 mm Hg 92%
21:00 +8°C° 0.1 mm 5 m/s 733 mm Hg 92%
22:00 +9°C° 0.1 mm 5 m/s 733 mm Hg 91%
23:00 +9°C° 0.1 mm 5 m/s 733 mm Hg 90%

Dopodomani, 23 Ottobre, Venerdi

Tempo Temperatura Precipitazioni Vento Pressione Umidità
00:00 +9°C° 0 mm 5 m/s 733 mm Hg 89%
01:00 +9°C° 0 mm 5 m/s 733 mm Hg 89%
02:00 +9°C° 0 mm 5 m/s 734 mm Hg 88%
03:00 +9°C° 0 mm 5 m/s 734 mm Hg 89%
04:00 +9°C° 0 mm 5 m/s 734 mm Hg 90%
05:00 +9°C° 0 mm 5 m/s 734 mm Hg 90%
06:00 +9°C° 0 mm 5 m/s 734 mm Hg 89%
07:00 +9°C° 0 mm 5 m/s 734 mm Hg 88%
08:00 +9°C° 0 mm 5 m/s 734 mm Hg 86%
09:00 +10°C° 0 mm 5 m/s 734 mm Hg 85%
10:00 +10°C° 0 mm 5 m/s 734 mm Hg 83%
11:00 +10°C° 0 mm 5 m/s 734 mm Hg 81%
12:00 +11°C° 0.1 mm 6 m/s 733 mm Hg 83%
13:00 +11°C° 0.1 mm 6 m/s 732 mm Hg 84%
14:00 +11°C° 0.1 mm 7 m/s 732 mm Hg 86%
15:00 +11°C° 1.2 mm 7 m/s 731 mm Hg 87%
16:00 +11°C° 1.2 mm 7 m/s 731 mm Hg 89%
17:00 +11°C° 1.2 mm 7 m/s 730 mm Hg 90%
18:00 +10°C° 0.5 mm 7 m/s 730 mm Hg 90%
19:00 +10°C° 0.5 mm 6 m/s 730 mm Hg 89%
20:00 +10°C° 0.5 mm 5 m/s 730 mm Hg 89%
21:00 +10°C° 0.1 mm 5 m/s 730 mm Hg 89%
22:00 +9°C° 0.1 mm 5 m/s 731 mm Hg 89%
23:00 +9°C° 0.1 mm 5 m/s 731 mm Hg 89%

24 Ottobre, Sabato

Tempo Temperatura Precipitazioni Vento Pressione Umidità
00:00 +8°C° 0 mm 5 m/s 731 mm Hg 89%
01:00 +8°C° 0 mm 5 m/s 731 mm Hg 90%
02:00 +7°C° 0 mm 5 m/s 732 mm Hg 90%
03:00 +7°C° 0 mm 5 m/s 732 mm Hg 89%
04:00 +8°C° 0 mm 4 m/s 732 mm Hg 87%
05:00 +8°C° 0 mm 4 m/s 733 mm Hg 86%
06:00 +8°C° 0 mm 4 m/s 733 mm Hg 86%
07:00 +7°C° 0 mm 4 m/s 733 mm Hg 86%
08:00 +7°C° 0 mm 4 m/s 734 mm Hg 86%
09:00 +8°C° 0 mm 4 m/s 734 mm Hg 83%
10:00 +8°C° 0 mm 4 m/s 734 mm Hg 80%
11:00 +10°C° 0 mm 4 m/s 735 mm Hg 77%
12:00 +10°C° 0 mm 4 m/s 735 mm Hg 77%
13:00 +10°C° 0 mm 4 m/s 735 mm Hg 78%
14:00 +10°C° 0 mm 4 m/s 735 mm Hg 78%
15:00 +9°C° 0 mm 3 m/s 734 mm Hg 82%
16:00 +8°C° 0 mm 3 m/s 734 mm Hg 85%
17:00 +8°C° 0 mm 2 m/s 734 mm Hg 89%
18:00 +7°C° 0 mm 2 m/s 734 mm Hg 90%
19:00 +7°C° 0 mm 2 m/s 734 mm Hg 92%
20:00 +8°C° 0 mm 1 m/s 734 mm Hg 93%
21:00 +8°C° 0.1 mm 1 m/s 733 mm Hg 93%
22:00 +8°C° 0.1 mm 1 m/s 733 mm Hg 93%
23:00 +8°C° 0.1 mm 1 m/s 732 mm Hg 92%

25 Ottobre, Domenica

Tempo Temperatura Precipitazioni Vento Pressione Umidità
00:00 +7°C° 0.3 mm 2 m/s 732 mm Hg 93%
01:00 +7°C° 0.3 mm 2 m/s 731 mm Hg 94%
02:00 +7°C° 0.3 mm 3 m/s 730 mm Hg 95%
03:00 +7°C° 0.4 mm 3 m/s 730 mm Hg 95%
04:00 +7°C° 0.4 mm 3 m/s 730 mm Hg 95%
05:00 +6°C° 0.4 mm 4 m/s 729 mm Hg 95%
06:00 +6°C° 0.7 mm 4 m/s 729 mm Hg 95%
07:00 +6°C° 0.7 mm 4 m/s 729 mm Hg 95%
08:00 +6°C° 0.7 mm 4 m/s 729 mm Hg 94%
09:00 +6°C° 0.3 mm 4 m/s 730 mm Hg 93%
10:00 +6°C° 0.3 mm 5 m/s 730 mm Hg 92%
11:00 +6°C° 0.3 mm 5 m/s 731 mm Hg 90%
12:00 +6°C° 0.2 mm 5 m/s 732 mm Hg 88%
13:00 +7°C° 0.2 mm 5 m/s 732 mm Hg 85%
14:00 +7°C° 0.2 mm 5 m/s 733 mm Hg 83%
15:00 +7°C° 0 mm 5 m/s 733 mm Hg 83%
16:00 +6°C° 0 mm 4 m/s 734 mm Hg 84%
17:00 +6°C° 0 mm 4 m/s 735 mm Hg 85%
18:00 +5°C° 0 mm 4 m/s 736 mm Hg 87%
19:00 +5°C° 0 mm 4 m/s 736 mm Hg 88%
20:00 +4°C° 0 mm 4 m/s 737 mm Hg 89%
21:00 +4°C° 0 mm 3 m/s 738 mm Hg 91%
22:00 +3°C° 0 mm 3 m/s 738 mm Hg 92%
23:00 +3°C° 0 mm 3 m/s 739 mm Hg 94%

26 Ottobre, Lunedi

Tempo Temperatura Precipitazioni Vento Pressione Umidità
00:00 +4°C° 0 mm 2 m/s 739 mm Hg 94%
01:00 +3°C° 0 mm 2 m/s 740 mm Hg 94%
02:00 +3°C° 0 mm 2 m/s 740 mm Hg 95%
03:00 +3°C° 0 mm 2 m/s 741 mm Hg 94%
04:00 +3°C° 0 mm 2 m/s 741 mm Hg 94%
05:00 +3°C° 0 mm 2 m/s 742 mm Hg 94%
06:00 +3°C° 0 mm 2 m/s 742 mm Hg 94%
07:00 +3°C° 0 mm 2 m/s 743 mm Hg 93%
08:00 +5°C° 0 mm 1 m/s 743 mm Hg 93%
09:00 +6°C° 0 mm 1 m/s 743 mm Hg 89%
10:00 +7°C° 0 mm 1 m/s 744 mm Hg 85%
11:00 +8°C° 0 mm 1 m/s 744 mm Hg 81%
12:00 +9°C° 0 mm 1 m/s 744 mm Hg 81%
13:00 +9°C° 0 mm 1 m/s 744 mm Hg 81%
14:00 +9°C° 0 mm 1 m/s 744 mm Hg 80%
15:00 +8°C° 0 mm 1 m/s 745 mm Hg 83%
16:00 +8°C° 0 mm 1 m/s 745 mm Hg 86%
17:00 +7°C° 0 mm 1 m/s 745 mm Hg 89%
18:00 +7°C° 0 mm 1 m/s 745 mm Hg 89%
19:00 +6°C° 0 mm 0 m/s 746 mm Hg 90%
20:00 +6°C° 0 mm 0 m/s 746 mm Hg 90%
21:00 +6°C° 0 mm 1 m/s 746 mm Hg 90%
22:00 +6°C° 0 mm 1 m/s 746 mm Hg 90%
23:00 +6°C° 0 mm 1 m/s 746 mm Hg 91%

27 Ottobre, Martedi

Tempo Temperatura Precipitazioni Vento Pressione Umidità
00:00 +6°C° 0 mm 1 m/s 746 mm Hg 92%
01:00 +5°C° 0 mm 1 m/s 747 mm Hg 92%
02:00 +4°C° 0 mm 2 m/s 747 mm Hg 93%
03:00 +3°C° 0 mm 2 m/s 747 mm Hg 93%
04:00 +3°C° 0 mm 2 m/s 747 mm Hg 94%
05:00 +3°C° 0 mm 2 m/s 747 mm Hg 94%
06:00 +3°C° 0 mm 2 m/s 748 mm Hg 93%
07:00 +3°C° 0 mm 2 m/s 748 mm Hg 92%
08:00 +3°C° 0 mm 2 m/s 748 mm Hg 91%
09:00 +5°C° 0 mm 2 m/s 748 mm Hg 86%
10:00 +5°C° 0 mm 3 m/s 748 mm Hg 81%
11:00 +7°C° 0 mm 3 m/s 749 mm Hg 76%
12:00 +8°C° 0 mm 3 m/s 749 mm Hg 74%
13:00 +8°C° 0 mm 3 m/s 749 mm Hg 73%
14:00 +8°C° 0 mm 3 m/s 748 mm Hg 72%
15:00 +7°C° 0 mm 3 m/s 748 mm Hg 77%
16:00 +5°C° 0 mm 3 m/s 748 mm Hg 82%
17:00 +4°C° 0 mm 3 m/s 748 mm Hg 87%
18:00 +4°C° 0 mm 3 m/s 748 mm Hg 87%
19:00 +3°C° 0 mm 3 m/s 748 mm Hg 87%
20:00 +3°C° 0 mm 3 m/s 748 mm Hg 87%
21:00 +3°C° 0 mm 3 m/s 748 mm Hg 87%
22:00 +3°C° 0 mm 3 m/s 748 mm Hg 86%
23:00 +2°C° 0 mm 3 m/s 748 mm Hg 86%
Mostrare altro

Abbiamo bisogno del tuo consenso

Meteoprog e i nostri fornitori di servizi possono memorizzare e accedere a dati personali come cookie, identificatori di dispositivi o altre tecnologie simili sul tuo dispositivo e possono elaborare tali dati per personalizzare i contenuti e gli annunci, nonché fornire funzionalità dei social media e analizzarne il traffico.

  • Archiviare e/o accedere alle informazioni sul tuo dispositivo

    Cookie, identificatori di dispositivi o altre informazioni possono essere memorizzati o resi accessibili sul tuo dispositivo per le finalità sopra indicate.

  • Annunci e contenuti personalizzati, misurazione di annunci e contenuti, approfondimenti sul pubblico e sviluppo di prodotti

    Gli annunci e i contenuti possono essere personalizzati in base a un profilo. È possibile aggiungere più dati per personalizzare meglio annunci e contenuti. È possibile misurare il rendimento degli annunci e dei contenuti. È possibile ricavare informazioni sul pubblico che ha visto gli annunci e i contenuti. Tali dati possono essere utilizzati per sviluppare o migliorare l'esperienza, i sistemi e il software dell'utente.

Cliccando su “Accetto”, acconsenti all'uso di cookie, identificatori di dispositivo, web beacon o altre tecnologie simili. Puoi modificare le impostazioni nel browser del tuo dispositivo.

Per determinati scopi, è possibile fare affidamento su interessi legali, piuttosto che sul consenso. Puoi approfondire questo argomento consultando la nostra Informativa sulla privacy e sui cookie.